Location: ????????
(55.6333°N, 37.7000°E)
Time: 05:11:24
(UTC+00:00)

BlueWalker 3 - Pass Details

Date: 19 May 2025
Orbit: 460 x 472 km, 53.2° (Epoch: 19 June)

Event Time Altitude Azimuth Distance (km) Brightness Sun altitude
Rises 19:30:52 0° 279° (W) 2,497 6.0 -10.6°
Reaches altitude 10° 19:33:35 10° 257° (WSW) 1,620 4.7 -10.8°
Maximum altitude 19:35:55 16° 217° (SW) 1,280 3.7 -10.9°
Enters shadow 19:37:34 13° 187° (S) 1,457 3.8 -11.0°
